User: anonymous   Login
Location: Charleston
(38.3500°N, 81.6330°W)
Time: 00:56:52
(UTC-05:00)
Language:

Cosmos 2228 - Orbit

View from above orbital plane
View from above orbital plane
View from above satellite
View from above satellite

Ground track
Ground track

The orbit data is extracted from the following two-line orbital elements,

1 22286U 92094A   15064.55715367  .00001787  00000-0  19777-3 0  9996
2 22286 082.5186 080.5945 0021352 015.4535 344.7329 14.86663899198436
Epoch (UTC): 05 March 2015 13:22:18
Eccentricity: 0.0021352
inclination: 82.5186°
perigee height: 593 km
apogee height: 623 km
right ascension of ascending node: 80.5945°
argument of perigee: 15.4535°
revolutions per day: 14.86663899
mean anomaly at epoch: 344.7329°
orbit number at epoch: 19843

The dashed part of the orbit path shows where the satellite is in the earth's shadow,  

DLR